Content
SEND FEEDBACK

Daily
Averages
Monthly
Summary
United States of America

STATEN ISLAND, NEW YORK


Home > North America > United States > New York
Elevation: 152 feet     Latitude: 40 35N     Longitude: 074 09W

WEATHER
 
SELECT A DAY
Number of Records: 189,619;   Date Range: 1/1/95 - 7/27/14
 
SHARE

PRINT THIS DATA

[ ← Previous Day ]
WEATHER ALMANAC - MAY 12, 2013
[ Next Day → ]
[ °C ]   °F
Weather ElementAverageHighLow
Temperature62.2 °F69.1 °F (12:51 pm)52 °F (11:51 pm)
Dewpoint37.5 °F55 °F (1:51 am)21 °F (6:51 pm)
Humidity43.7 %78 % (2:51 am)20 % (4:51 pm)
Barometer29.75 in29.94 in (11:51 pm)29.67 in (2:51 am)
Wind Speed15.6 mph27.6 mph (5:51 pm)
Wind Gust35.7 mph (4:51 pm)
Weather ElementAverage
Visibility10 mi
Wind DirectionW (267.8 °)

Weather ElementTotal
Precipitation---
Heating Degree Days4.5 (Base 65)
Growing Degree Days10.6 (Base 50)
Averaged from 23 records on May 12, 2013
WEATHER CONDITIONS BREAKOUT
WIND DIRECTION BREAKOUT
WEATHER BY HOUR - MAY 12, 2013
[ °C ]   °F
Local TimeTemperatureDewpointHumidityBarometerVisibilityWind DirectionWind SpeedGust SpeedPrecipitationEventsConditions
1:51 AM64.0 °F55.0 °F73 %29.69 in10.0 miWSW (250°)9.2 mphMostly Cloudy
2:51 AM62.1 °F55.0 °F78 %29.67 in10.0 miWest (270°)9.2 mphMostly Cloudy
3:51 AM62.1 °F53.1 °F72 %29.69 in10.0 miWest (270°)5.8 mphOvercast
4:51 AM62.1 °F51.1 °F67 %29.69 in10.0 miWSW (240°)3.5 mphOvercast
5:51 AM61.0 °F51.1 °F70 %29.71 in10.0 miWest (260°)6.9 mph0.00 inRainLight Rain
6:51 AM59.0 °F48.9 °F69 %29.72 in10.0 miWest (260°)11.5 mph0.00 inRainLight Rain
7:51 AM59.0 °F46.0 °F62 %29.72 in10.0 miWest (260°)9.2 mph0.00 inMostly Cloudy
8:51 AM62.1 °F43.0 °F50 %29.70 in10.0 miNW (310°)11.5 mphMostly Cloudy
9:51 AM64.9 °F44.1 °F47 %29.70 in10.0 miWest (270°)13.8 mph20.7 mphScattered Clouds
10:51 AM68.0 °F45.0 °F43 %29.70 in10.0 miWNW (290°)15.0 mph25.3 mphScattered Clouds
11:51 AM66.9 °F44.1 °F44 %29.70 in10.0 miWest (270°)16.1 mph27.6 mphMostly Cloudy
12:51 PM69.1 °F39.9 °F35 %29.69 in10.0 miWest (260°)19.6 mph27.6 mphMostly Cloudy
1:51 PM68.0 °F36.0 °F31 %29.70 in10.0 miWest (260°)24.2 mph31.1 mphScattered Clouds
2:51 PM66.9 °F28.9 °F24 %29.70 in10.0 miWest (260°)23.0 mph33.4 mphScattered Clouds
3:51 PM66.9 °F26.1 °F21 %29.71 in10.0 miWSW (240°)24.2 mph32.2 mphScattered Clouds
4:51 PM66.0 °F23.0 °F20 %29.73 in10.0 miWest (280°)21.9 mph35.7 mphScattered Clouds
5:51 PM64.0 °F26.1 °F24 %29.77 in10.0 miWSW (250°)27.6 mph34.5 mphScattered Clouds
6:51 PM62.1 °F21.0 °F21 %29.79 in10.0 miWest (260°)27.6 mph33.4 mphScattered Clouds
7:51 PM59.0 °F23.0 °F25 %29.83 in10.0 miWest (270°)16.1 mphScattered Clouds
8:51 PM57.9 °F24.1 °F27 %29.86 in10.0 miWest (280°)15.0 mphScattered Clouds
9:51 PM55.0 °F27.0 °F34 %29.91 in10.0 miWNW (290°)15.0 mph25.3 mphPartly Cloudy
10:51 PM53.1 °F25.0 °F34 %29.93 in10.0 miWest (280°)20.7 mph26.5 mphPartly Cloudy
11:51 PM52.0 °F25.0 °F35 %29.94 in10.0 miWest (280°)11.5 mph19.6 mphPartly Cloudy
Hourly data recorded from KEWR, located miles away from Staten Island, New York







STORIES FROM OUR PARTNERS